Temp_Advection
nan nan nan nan nan nan nan nan nan nan nan nan nan nan nan nan nan nan nan nan nan nan nan nan nan nan nan nan nan nan nan nan nan nan nan nan nan nan nan nan nan nan nan nan
nan -0 -0 -0 0 0 0 0 -1 -1 0 -0 -0 -0 0 -0 1 0 -0 0 0 -0 0 0 0 0 0 -0 0 -0 0 0 0 0 0 0 0 0 0 0 0 0 0 nan
nan -0 -0 -0 -0 -1 -0 0 0 -0 -0 0 -0 -0 -0 -0 -1 1 1 -0 1 0 0 0 1 1 0 1 1 0 1 0 0 -0 -0 -0 -0 -0 -0 -0 -0 0 0 nan
nan -0 0 0 -0 -0 -0 -0 0 -0 -0 0 -0 0 -0 -0 -0 0 -0 -1 0 -0 -0 0 0 0 0 1 0 0 0 0 -0 -0 -0 -0 -0 -0 -0 0 0 0 -0 nan
nan -0 0 -0 -0 0 -0 -0 0 0 0 -0 0 -0 -0 -0 0 -0 -1 -1 -0 -0 0 0 -0 0 0 0 0 0 0 -0 -0 -0 -0 -0 0 0 0 0 0 0 0 nan
nan -0 -0 -0 -1 -0 -0 0 -0 -0 -0 0 -0 -0 -0 -0 -0 -0 0 0 0 0 0 0 0 0 0 0 0 0 0 -0 -0 -0 0 0 0 0 0 0 0 0 0 nan
nan 0 -0 -0 -0 -0 -0 -0 -0 -0 -0 -1 0 -0 -0 -0 -0 -0 -0 0 0 0 -0 -0 0 0 0 -0 -0 -0 0 0 0 0 0 0 0 0 0 0 0 0 0 nan
nan 0 -0 -0 0 0 -0 -0 -0 -0 -0 -1 0 -0 -0 -0 -0 1 0 0 0 0 0 -0 -0 -0 -0 -0 0 0 0 0 1 1 1 1 1 0 0 0 1 0 0 nan
nan 0 -0 -1 -0 -0 0 0 -0 0 0 0 -0 -0 -0 0 -0 0 0 1 0 -0 -0 -0 -0 -0 -0 -0 0 0 0 0 1 1 1 1 1 1 1 0 0 0 0 nan
nan 0 -0 -1 -0 -0 -0 -1 0 0 0 -0 -0 -0 0 0 0 -0 0 0 -0 -0 -0 -0 -0 -0 0 0 0 0 0 0 1 1 1 1 1 1 0 -0 0 1 0 nan
nan 0 -0 -0 0 -0 -0 -0 0 0 -0 0 0 -1 -0 -0 0 -0 -0 -1 -0 -0 -0 -0 -0 0 0 0 0 0 0 0 1 1 1 1 0 0 0 -0 0 0 0 nan
nan -0 0 -1 -2 -1 -0 0 -0 -0 -0 -0 0 -1 0 -0 -0 -1 -1 -0 -0 -0 -0 -0 -0 -0 0 0 1 1 1 1 1 1 1 0 0 0 0 -0 0 0 0 nan
nan -0 -0 -0 -0 -0 0 0 -0 -0 -0 0 -0 -1 -0 -0 -0 0 -0 -0 -0 -0 -0 0 0 1 1 1 1 1 1 1 1 1 0 0 0 0 0 0 0 0 0 nan
nan 0 -1 -0 -0 -0 -0 -0 0 -0 -0 -0 -0 -0 -0 -0 0 0 -0 -0 -0 0 0 1 1 1 1 1 1 1 1 1 0 0 0 0 0 0 -0 0 0 0 0 nan
nan 0 -0 0 -0 -0 -0 0 -0 0 -0 -0 -1 -0 -0 0 -1 -1 0 0 0 1 1 1 1 0 0 0 0 1 1 0 1 0 0 0 0 0 0 0 0 0 0 nan
nan 0 0 -0 -0 -1 -1 -0 -0 -0 -0 0 0 -0 -0 0 0 -0 0 0 0 -0 0 0 -0 0 -0 0 0 1 1 1 1 0 0 0 0 0 0 -0 0 0 1 nan
nan -0 -0 0 -1 -1 -0 -1 -0 -0 -0 0 0 -0 -0 -0 0 0 0 -0 0 0 0 0 0 0 1 1 1 1 1 1 0 1 0 0 -0 -0 -0 -1 0 1 0 nan
nan -0 -0 0 -0 0 -2 -0 -0 -0 -0 -0 -0 -0 0 1 1 -0 -0 0 0 0 0 0 0 1 1 1 1 1 1 1 0 0 0 -0 -0 -0 -0 0 -0 -0 -0 nan
nan -1 -0 0 0 -1 -1 0 -0 -0 -0 -0 -0 0 1 0 -2 -2 0 -0 -0 0 0 0 1 1 0 1 1 0 0 0 0 0 -0 -0 -0 -0 0 0 0 -0 -0 nan
nan -1 -0 0 0 0 -1 0 0 -1 -0 0 0 0 0 -2 -1 -0 1 -0 -0 0 0 1 1 1 1 1 1 1 0 0 -0 -0 -0 0 -0 0 1 0 0 0 0 nan
nan -0 0 -0 -0 -1 -1 0 -0 -1 -1 1 -1 -0 -1 -0 0 0 0 0 0 0 1 1 1 1 1 1 1 0 0 -0 -0 0 0 0 -0 0 0 0 0 0 0 nan
nan -1 -0 0 0 -1 -1 -0 -0 -0 1 -0 -1 -0 -0 -0 -0 -0 0 0 0 0 1 1 1 0 0 0 0 -0 0 0 0 0 0 0 0 0 0 -0 -0 0 0 nan
nan -1 -1 -1 -1 -1 1 -0 0 -0 -1 -0 -0 -0 -0 -0 0 0 -0 0 0 0 0 0 0 -0 0 -0 0 0 0 0 0 0 0 0 0 0 0 -0 -0 -0 0 nan
nan -1 -0 0 -0 -0 -0 0 0 -0 -0 -0 -0 -0 0 -0 1 0 0 0 0 0 0 0 0 0 -0 -0 -0 -0 -0 0 0 -0 -0 0 0 0 0 0 0 0 0 nan
nan 0 0 0 -0 -0 -0 0 0 -0 -0 0 0 0 0 -0 -0 1 0 0 0 0 -0 -0 -0 -0 -0 -0 -0 0 0 0 0 0 0 0 0 0 0 1 1 1 1 nan
nan nan nan nan nan nan nan nan nan nan nan nan nan nan nan nan nan nan nan nan nan nan nan nan nan nan nan nan nan nan nan nan nan nan nan nan nan nan nan nan nan nan nan nan
Wind_Speed
3 4 3 6 8 8 9 8 11 10 10 9 9 10 13 18 19 13 12 21 21 25 26 25 21 25 27 27 27 27 22 21 20 20 14 15 12 11 13 11 9 8 5 3
5 1 4 12 11 13 12 6 24 16 6 6 8 8 10 14 17 18 20 15 25 26 25 24 22 20 25 28 27 26 21 15 14 14 10 8 10 8 9 9 9 6 4 5
7 7 4 6 12 15 5 4 2 5 6 2 3 3 6 7 19 21 29 27 33 30 26 23 20 21 14 26 27 23 16 13 13 14 10 6 10 13 13 10 6 8 7 9
5 8 9 8 10 9 1 5 5 6 4 2 4 3 3 6 6 16 24 29 32 29 24 24 23 21 17 21 20 14 8 18 18 16 15 15 15 15 12 9 9 6 7 14
10 3 4 7 7 1 6 8 5 4 6 3 3 6 6 5 3 7 13 25 32 32 27 27 24 20 20 18 17 12 19 18 18 19 14 15 11 15 16 15 12 7 6 9
9 4 7 7 9 7 6 4 2 5 2 2 9 5 5 8 12 5 14 22 27 31 29 28 22 20 15 17 21 20 17 18 23 16 17 17 15 20 18 15 12 11 8 10
4 6 4 7 5 2 6 3 3 5 6 4 5 4 8 4 13 13 15 21 24 28 26 24 22 22 20 18 18 23 24 25 23 20 21 21 18 19 17 15 13 13 15 15
6 2 3 2 5 5 3 3 4 4 2 5 4 5 4 7 15 28 27 23 24 25 26 25 26 27 27 25 25 24 23 23 22 23 23 23 21 17 13 10 13 13 15 19
3 4 5 7 6 2 1 4 6 2 2 3 4 3 6 6 3 15 18 26 28 28 27 29 30 29 26 26 25 24 18 19 20 21 23 22 18 14 12 13 12 18 19 19
1 3 4 8 7 8 7 12 3 3 1 3 4 3 4 6 6 9 10 23 27 27 28 30 31 29 26 21 20 21 21 23 24 24 23 20 15 13 12 16 21 14 18 18
6 5 4 4 5 13 1 3 3 4 5 5 1 5 5 10 9 9 15 28 30 30 31 29 32 30 26 23 20 25 22 24 25 25 23 17 12 11 12 11 13 15 18 19
8 4 3 13 23 10 6 5 5 5 5 3 5 5 2 8 10 19 22 32 33 32 31 30 29 30 29 31 30 30 25 23 24 22 16 10 8 5 7 9 13 14 15 17
2 2 2 2 2 3 3 6 4 3 4 4 5 5 2 7 9 20 16 27 32 32 31 30 28 33 30 32 31 25 21 20 17 12 9 3 1 6 11 13 13 16 19 21
6 0 5 6 6 3 4 4 6 3 4 4 5 4 9 7 7 9 10 14 29 33 32 33 32 32 27 25 22 21 20 17 13 9 5 6 8 12 14 15 18 20 20 21
4 4 1 4 6 4 5 0 5 4 6 6 8 7 10 5 11 18 15 11 18 29 29 29 31 27 22 19 17 19 20 16 12 9 10 11 10 14 15 16 18 18 19 20
1 2 3 1 5 8 4 5 6 6 6 4 3 5 4 9 17 15 9 10 11 22 24 23 21 21 20 19 21 19 15 10 13 15 10 10 13 14 14 15 17 21 20 19
6 4 3 2 4 6 6 6 6 6 5 4 4 7 5 5 9 10 9 6 7 19 19 17 18 19 18 20 20 15 15 16 17 13 9 8 10 14 18 21 22 20 18 19
6 5 3 3 3 1 8 5 5 4 1 5 6 6 10 10 14 13 12 9 10 12 14 14 17 18 20 19 19 20 17 15 9 5 3 8 11 15 20 21 20 18 21 23
4 5 2 4 4 5 9 1 2 3 3 5 7 7 14 12 24 23 17 14 13 13 13 14 16 20 22 22 20 19 13 8 8 4 5 10 11 20 21 20 20 22 25 24
6 6 5 3 4 6 6 3 5 4 1 7 13 6 8 9 5 3 12 14 14 12 14 20 21 21 21 20 18 18 14 7 2 7 12 11 19 20 18 19 21 23 24 25
3 3 5 2 2 7 7 7 3 6 6 9 13 15 12 5 6 10 11 15 14 18 20 21 21 21 20 19 17 12 7 2 10 8 18 20 18 19 19 21 21 23 21 20
7 6 3 3 2 6 10 5 6 5 10 11 16 15 16 12 11 16 16 18 20 23 22 21 21 18 14 11 6 1 10 5 9 17 16 17 17 15 20 24 25 21 22 24
3 7 6 7 6 7 12 19 14 12 15 12 10 7 9 10 15 15 19 19 18 17 17 16 14 12 6 2 7 7 4 12 13 14 17 17 17 17 21 25 27 28 30 22
2 7 4 4 3 7 24 21 16 13 14 8 6 3 1 5 17 22 22 19 17 14 12 8 5 1 5 5 4 10 12 14 14 17 17 16 18 20 23 26 28 30 33 25
5 6 6 2 10 21 16 16 13 13 14 10 7 6 7 18 25 24 21 17 12 8 5 1 2 2 3 8 11 12 13 14 18 18 18 21 24 24 25 26 28 30 28 23
3 5 4 4 8 12 11 11 16 18 18 13 12 17 20 20 22 18 17 12 9 8 7 7 6 7 8 10 11 12 16 19 20 23 26 29 28 29 29 28 29 28 30 27
Wind_Direction
240 80 67 248 251 252 273 248 237 263 200 153 195 156 176 159 134 120 137 151 156 149 156 155 154 176 177 184 184 187 196 203 210 203 208 211 230 237 246 247 225 205 211 142
356 284 239 277 275 278 294 246 256 235 204 163 191 190 173 143 148 170 192 198 175 160 161 163 176 170 192 192 193 192 207 215 194 200 204 200 205 194 201 189 183 198 238 289
266 240 309 287 284 303 273 18 335 56 340 202 87 83 358 176 178 195 195 200 178 172 167 173 179 193 200 196 192 202 211 212 185 157 162 152 155 158 173 188 235 245 249 309
230 270 265 292 297 260 20 299 337 28 57 235 73 226 331 283 177 187 204 187 182 172 173 175 183 190 192 186 194 201 228 161 158 165 178 180 176 180 202 214 240 245 289 311
225 216 221 263 254 328 212 230 213 202 266 42 271 110 264 228 241 218 189 181 181 185 184 184 190 198 202 209 224 197 157 154 162 163 190 180 193 213 213 199 207 219 266 284
199 181 150 213 267 244 133 223 47 83 75 181 243 114 252 205 209 207 184 196 195 180 184 183 188 188 182 175 167 166 162 163 166 175 187 194 192 186 183 180 196 216 233 249
164 207 208 203 296 303 27 40 4 11 14 248 35 158 237 216 166 176 223 172 157 163 166 165 170 167 163 172 177 175 182 181 187 185 185 194 192 189 200 210 233 259 267 256
174 147 343 292 209 179 58 83 158 161 169 260 127 211 256 231 211 202 205 179 167 169 170 172 170 170 171 177 174 179 188 192 200 206 208 209 212 214 227 245 256 260 263 267
149 127 332 315 1 186 336 55 264 183 273 62 247 292 351 87 88 159 186 171 164 171 174 179 178 181 190 193 192 192 202 210 214 216 219 222 227 230 219 250 271 303 275 274
208 113 5 285 355 292 156 187 231 335 169 272 304 299 233 145 160 148 155 164 171 176 179 185 187 194 202 204 201 191 205 207 209 212 218 227 229 228 266 305 310 275 273 276
144 127 277 12 243 251 178 241 217 163 144 187 144 291 177 168 190 165 177 179 180 183 186 189 193 198 198 196 197 193 205 214 213 217 216 218 225 284 292 313 281 272 274 279
190 129 143 235 252 219 178 198 183 123 270 184 144 265 116 183 175 181 191 185 187 189 189 192 196 192 190 189 189 195 199 209 215 213 211 229 270 290 284 283 272 267 269 273
122 209 96 229 301 312 221 242 218 186 94 216 133 259 233 157 175 187 200 191 189 189 189 191 196 196 189 184 182 189 197 208 210 216 237 267 246 220 261 260 264 269 279 284
109 258 150 190 218 240 253 223 257 182 117 214 202 259 303 249 199 188 181 187 188 189 190 191 188 180 175 179 187 198 212 213 212 223 187 181 236 264 262 270 275 281 286 291
114 174 275 292 306 322 261 247 321 298 227 149 236 218 253 273 204 200 191 195 194 191 190 182 168 169 172 180 189 194 199 206 224 187 197 229 248 264 272 286 287 289 291 293
218 220 139 301 346 10 9 309 296 296 293 318 304 260 242 122 100 93 102 194 168 154 159 164 171 178 182 194 194 200 210 217 194 206 223 248 257 279 297 307 316 300 295 291
149 135 92 245 360 4 345 238 234 245 255 238 267 265 325 71 86 111 86 64 165 172 170 170 177 182 190 195 202 203 184 188 196 205 232 277 314 318 327 315 302 295 301 292
149 129 101 180 40 29 241 267 152 161 50 41 67 68 73 80 77 70 67 107 118 134 154 162 170 173 170 172 172 172 177 189 199 233 254 325 328 316 298 295 302 299 292 294
94 111 96 137 186 288 317 90 149 146 46 39 81 89 78 69 69 52 78 94 109 119 137 154 164 163 158 161 163 166 156 146 158 170 346 328 315 285 294 302 304 300 298 304
55 74 119 101 145 206 239 146 65 53 46 25 57 64 102 66 72 305 76 83 102 125 145 148 150 153 158 155 167 167 159 146 358 354 324 291 282 298 299 300 301 298 302 307
42 17 144 129 192 287 249 143 113 98 220 61 60 66 69 91 119 100 107 113 131 132 138 145 152 151 150 159 170 154 145 98 323 307 273 283 290 294 294 299 294 291 287 294
159 138 190 113 112 278 192 100 134 189 101 91 76 87 100 106 105 114 117 118 122 123 132 143 146 143 147 158 162 49 307 315 267 267 290 294 297 300 294 300 306 311 305 286
120 172 174 169 210 228 119 114 110 106 90 82 90 83 86 125 126 138 127 126 130 135 139 143 148 143 132 75 308 308 273 272 285 290 291 295 298 296 294 301 309 310 312 288
84 147 124 93 236 121 104 100 108 108 93 93 83 88 156 100 155 139 138 138 140 136 131 140 155 176 326 325 329 295 305 306 296 299 299 299 299 299 295 298 300 301 308 310
198 124 146 171 101 86 77 92 97 97 104 114 112 109 121 142 132 143 141 139 127 120 112 32 358 49 349 311 302 298 303 305 299 298 294 292 299 298 300 300 299 302 311 311
165 165 138 202 115 117 113 105 129 121 115 123 120 114 122 142 131 128 114 110 109 98 97 82 34 320 334 333 321 307 298 294 291 285 286 293 296 301 303 300 305 309 310 310
Height
1498 1503 1507 1505 1502 1499 1501 1511 1505 1493 1492 1497 1499 1498 1499 1501 1504 1507 1510 1514 1518 1521 1525 1530 1533 1535 1536 1536 1539 1543 1546 1548 1551 1555 1557 1558 1559 1561 1562 1564 1565 1565 1566 1566
1505 1509 1499 1500 1498 1499 1499 1502 1506 1487 1484 1489 1497 1499 1496 1500 1503 1503 1509 1514 1516 1517 1521 1526 1531 1534 1533 1533 1537 1540 1543 1545 1550 1552 1554 1554 1557 1559 1560 1562 1562 1564 1565 1564
1510 1500 1497 1500 1503 1507 1495 1498 1493 1497 1493 1485 1490 1505 1506 1499 1498 1501 1503 1511 1513 1512 1517 1521 1526 1528 1530 1532 1535 1538 1541 1544 1547 1549 1551 1553 1556 1558 1559 1561 1562 1563 1562 1562
1503 1494 1495 1501 1504 1500 1501 1485 1488 1493 1502 1514 1494 1530 1508 1503 1499 1505 1505 1509 1511 1513 1517 1520 1523 1527 1530 1532 1535 1538 1540 1542 1545 1547 1550 1552 1553 1555 1558 1560 1560 1560 1560 1560
1498 1494 1498 1503 1497 1490 1495 1481 1489 1495 1501 1506 1508 1524 1512 1499 1503 1501 1502 1503 1505 1507 1512 1516 1520 1525 1529 1531 1533 1536 1540 1542 1544 1546 1549 1551 1554 1555 1556 1557 1558 1559 1559 1559
1490 1487 1493 1494 1485 1486 1483 1490 1493 1503 1506 1526 1503 1510 1515 1503 1496 1496 1496 1499 1502 1505 1510 1514 1519 1522 1525 1529 1532 1536 1538 1541 1544 1547 1550 1551 1552 1553 1553 1555 1556 1556 1557 1556
1491 1490 1485 1486 1493 1486 1489 1496 1524 1534 1540 1531 1495 1507 1499 1486 1486 1483 1492 1495 1500 1504 1509 1513 1516 1520 1523 1528 1532 1534 1537 1540 1543 1545 1547 1549 1549 1551 1552 1552 1552 1553 1553 1552
1503 1508 1496 1487 1489 1494 1496 1503 1526 1534 1544 1527 1501 1514 1492 1479 1482 1482 1490 1493 1497 1502 1506 1510 1514 1518 1523 1528 1531 1533 1535 1538 1541 1543 1545 1546 1547 1548 1550 1550 1550 1550 1550 1549
1499 1499 1489 1483 1486 1489 1501 1513 1500 1509 1507 1524 1506 1495 1484 1477 1480 1484 1489 1492 1495 1500 1505 1509 1514 1517 1522 1526 1530 1532 1534 1537 1539 1540 1541 1543 1546 1547 1546 1546 1546 1545 1546 1545
1490 1504 1499 1491 1487 1483 1488 1493 1511 1512 1521 1523 1510 1498 1499 1488 1486 1486 1490 1491 1495 1500 1505 1508 1512 1515 1520 1524 1528 1532 1535 1535 1536 1537 1538 1540 1543 1543 1543 1543 1542 1542 1542 1541
1484 1494 1499 1493 1495 1493 1491 1494 1490 1496 1510 1527 1535 1513 1482 1486 1486 1485 1487 1490 1493 1497 1502 1506 1509 1513 1516 1521 1524 1528 1531 1532 1533 1533 1535 1538 1539 1540 1541 1540 1540 1540 1539 1537
1476 1493 1510 1501 1483 1478 1478 1484 1489 1520 1507 1507 1522 1515 1476 1478 1478 1480 1482 1484 1488 1492 1498 1503 1507 1510 1513 1516 1520 1523 1526 1528 1530 1532 1533 1535 1536 1537 1538 1539 1538 1537 1536 1534
1471 1485 1506 1500 1489 1477 1479 1477 1477 1483 1499 1503 1531 1515 1476 1475 1476 1477 1480 1483 1485 1489 1493 1498 1504 1507 1509 1513 1517 1520 1523 1524 1527 1530 1532 1534 1536 1536 1538 1537 1536 1534 1533 1531
1466 1476 1489 1509 1493 1481 1482 1477 1476 1482 1516 1505 1506 1493 1482 1479 1476 1476 1478 1479 1481 1484 1488 1493 1497 1501 1506 1510 1513 1517 1520 1524 1526 1529 1531 1532 1533 1534 1534 1533 1533 1531 1528 1526
1469 1483 1476 1477 1477 1477 1475 1476 1478 1481 1484 1500 1491 1487 1478 1474 1472 1472 1475 1478 1480 1483 1486 1489 1494 1500 1504 1508 1511 1514 1518 1522 1525 1527 1528 1529 1530 1531 1530 1529 1528 1527 1524 1521
1468 1482 1475 1482 1478 1481 1482 1476 1476 1478 1476 1474 1476 1480 1469 1469 1469 1474 1477 1478 1480 1483 1486 1489 1493 1497 1501 1504 1508 1512 1515 1519 1522 1525 1526 1527 1528 1528 1527 1525 1523 1521 1518 1516
1472 1479 1494 1494 1490 1488 1502 1480 1476 1474 1472 1474 1482 1475 1466 1470 1471 1473 1475 1477 1479 1482 1485 1488 1491 1494 1497 1502 1506 1510 1512 1516 1519 1522 1524 1526 1526 1526 1525 1524 1519 1515 1513 1510
1470 1477 1493 1507 1503 1518 1479 1465 1464 1468 1469 1469 1472 1472 1472 1474 1475 1476 1476 1477 1480 1483 1486 1488 1491 1493 1497 1500 1504 1507 1511 1514 1517 1518 1520 1522 1522 1523 1521 1517 1515 1512 1508 1505
1463 1479 1498 1509 1510 1488 1473 1465 1465 1468 1477 1471 1472 1473 1473 1475 1475 1480 1479 1479 1481 1483 1486 1489 1491 1494 1497 1501 1504 1506 1509 1512 1514 1516 1516 1518 1518 1515 1513 1511 1510 1508 1504 1500
1467 1473 1491 1510 1512 1514 1478 1465 1463 1465 1490 1474 1472 1473 1473 1474 1490 1487 1484 1483 1484 1485 1487 1488 1491 1494 1496 1499 1501 1503 1507 1510 1512 1513 1514 1513 1511 1510 1508 1507 1504 1503 1500 1495
1491 1493 1500 1514 1514 1494 1468 1463 1464 1488 1492 1474 1473 1475 1474 1480 1483 1485 1483 1484 1485 1487 1488 1489 1491 1493 1496 1498 1500 1503 1505 1508 1511 1511 1509 1508 1507 1505 1503 1501 1500 1497 1493 1490
1480 1493 1503 1503 1503 1498 1461 1464 1474 1475 1473 1474 1475 1477 1478 1481 1483 1483 1485 1486 1488 1489 1490 1491 1491 1494 1497 1499 1501 1505 1507 1508 1508 1506 1506 1505 1503 1501 1499 1497 1494 1491 1488 1484
1474 1466 1479 1480 1481 1462 1461 1463 1467 1469 1471 1474 1475 1477 1479 1481 1482 1484 1485 1488 1489 1490 1492 1494 1495 1497 1500 1502 1504 1505 1506 1504 1504 1503 1502 1500 1498 1496 1493 1490 1487 1484 1481 1477
1448 1449 1461 1465 1459 1460 1463 1465 1466 1469 1471 1474 1476 1477 1478 1481 1480 1482 1484 1488 1490 1493 1495 1497 1499 1500 1502 1503 1503 1503 1503 1502 1500 1498 1497 1495 1493 1491 1488 1485 1481 1478 1474 1470
1446 1447 1453 1459 1464 1462 1466 1466 1468 1469 1472 1473 1475 1476 1478 1478 1481 1481 1485 1488 1492 1495 1497 1499 1500 1501 1502 1502 1502 1501 1500 1498 1496 1494 1492 1490 1488 1485 1482 1478 1475 1472 1468 1465
1441 1445 1458 1465 1458 1459 1467 1469 1469 1469 1471 1474 1476 1478 1479 1480 1483 1486 1489 1492 1494 1496 1499 1500 1501 1502 1502 1501 1500 1499 1498 1496 1493 1490 1487 1485 1481 1478 1475 1471 1467 1464 1460 1458